Location: Caltech
(34.1382°N, 118.1253°W)
Time: 05:51:43
(UTC-07:00)

Cosmos 1939 Rocket - Visible Passes

Search period start: 05 July 2015 00:00
Search period end: 15 July 2015 00:00
Orbit: 535 x 591 km, 97.6° (Epoch: 04 July)

Date Brightness Start Highest point End Pass type
(mag) Time Alt. Az. Time Alt. Az. Time Alt. Az.
05 Jul 3.3 21:10:16 16° SE 21:13:23 48° ENE 21:17:26 10° N visible
05 Jul 5.8 22:47:48 10° WSW 22:48:45 10° W 22:49:24 10° W visible
06 Jul 3.3 21:10:01 16° SE 21:13:08 48° ENE 21:17:11 10° N visible
06 Jul 5.8 22:47:28 10° WSW 22:48:29 11° W 22:49:13 10° W visible
07 Jul 3.3 21:09:46 16° SE 21:12:52 48° ENE 21:16:56 10° N visible
07 Jul 5.8 22:47:08 10° WSW 22:48:14 11° W 22:49:02 10° WNW visible
08 Jul 3.3 21:09:31 16° SE 21:12:37 48° ENE 21:16:40 10° N visible
08 Jul 5.8 22:46:49 10° WSW 22:47:58 11° W 22:48:50 10° WNW visible
09 Jul 3.3 21:09:16 16° SE 21:12:22 47° ENE 21:16:24 10° N visible
09 Jul 5.7 22:46:29 10° WSW 22:47:42 11° W 22:48:38 10° WNW visible
10 Jul 3.3 21:09:01 16° SE 21:12:06 47° ENE 21:16:08 10° N visible
10 Jul 5.7 22:46:10 10° WSW 22:47:26 11° W 22:48:25 10° WNW visible
11 Jul 3.3 21:08:47 16° SE 21:11:51 47° ENE 21:15:52 10° N visible
11 Jul 5.7 22:45:50 10° WSW 22:47:10 11° W 22:48:12 10° WNW visible
12 Jul 3.3 21:08:32 16° SE 21:11:34 46° ENE 21:15:35 10° N visible
12 Jul 5.7 22:45:31 10° WSW 22:46:53 11° W 22:47:59 10° WNW visible
13 Jul 3.4 21:08:17 16° SE 21:11:18 46° ENE 21:15:19 10° N visible
13 Jul 5.7 22:45:12 10° WSW 22:46:36 11° W 22:47:45 10° WNW visible
14 Jul 3.4 21:08:02 16° SE 21:11:01 45° ENE 21:15:02 10° N visible
14 Jul 5.7 22:44:53 10° WSW 22:46:20 11° W 22:47:31 10° WNW visible
